Skip Page Navigation
NASA JPL Caltech
NASA Logo - Jet Propulsion Laboratory + View the NASA Portal
+ Center for Near-Earth Object Studies
JPL Home Earth Solar System Stars & Galaxies Technology
JPL Solar System Dynamics
BODIES ORBITS EPHEMERIDES TOOLS PHYSICAL DATA DISCOVERY FAQ SITE MAP
JPL Small-Body Database Browser
Search: [ help ]  
447092 (2004 TM95)
Classification: Main-belt Asteroid          SPK-ID: 2447092
Ephemeris | Orbit Diagram | Orbital Elements | Mission Design | Physical Parameters | Discovery Circumstances | Close-Approach Data ]

[ show orbit diagram ]
Orbital Elements at Epoch 2459000.5 (2020-May-31.0) TDB
Reference: JPL 11 (heliocentric ecliptic J2000)
 Element Value Uncertainty (1-sigma)   Units 
e .1618038210386924 1.5632e-07  
a 3.178795486680673 6.0207e-08 au
q 2.66445423063519 5.113e-07 au
i .1063784558990005 1.6603e-05 deg
node 311.557564072966 0.0098079 deg
peri 100.0873465945256 0.009809 deg
M 260.3757437352958 0.00010692 deg
tp 2459573.368443707778
(2021-Dec-24.86844371)
0.00061635 TDB
period 2070.104686019786
5.67
5.8812e-05
1.61e-07
d
yr
n .1739042486262742 4.9407e-09 deg/d
Q 3.693136742726156 6.9948e-08 au
  Orbit Determination Parameters
   # obs. used (total)      63  
   data-arc span      5767 days (15.79 yr)  
   first obs. used      2001-03-23  
   last obs. used      2017-01-05  
   planetary ephem.      DE431  
   SB-pert. ephem.      SB431-N16  
   condition code      0  
   norm. resid. RMS      .57698  
   source      ORB  
   producer      Otto Matic  
   solution date      2017-Apr-09 11:42:57  

Additional Information
 Earth MOID = 1.67532 au 
 Jupiter MOID = 1.67901 au 
 T_jup = 3.180 
[ show covariance matrix ]

Ephemeris | Orbit Diagram | Orbital Elements | Mission Design | Physical Parameters | Discovery Circumstances | Close-Approach Data ]

Physical Parameter Table
Parameter Symbol Value Units Sigma Reference Notes
absolute magnitude H 17.4   n/a MPO397616  

447092 (2004 TM95)          Discovered 2004-Oct-05 by Spacewatch at Kitt Peak
Reference: Last Updated: 2015-10-28

[ show close-approach data ]
Alternate Designations
 2004 TM95 = 2001 FK229 
Ephemeris | Orbit Diagram | Orbital Elements | Mission Design | Physical Parameters | Discovery Circumstances | Close-Approach Data ]
ABOUT SSD CREDITS/AWARDS PRIVACY/COPYRIGHT GLOSSARY LINKS
FirstGov 2020-Aug-04 00:56 UT
(server date/time)  
NASA Home Page
Site Manager:   Ryan S. Park
Webmaster  Alan B. Chamberlin